Date String (YYYY-MM-DD hh:mm:ss) UTC,Instrument flags,Ambient pressure (hPa),Sample flow (lpm),Bypass flow (lpm),Sample temperature (°C),Ambient temperature (°C),ASC tube jacket temperature (°C),LED temperature (°C),Box temperature (°C),Sample RH (%),Span deviation,Mass concentration (μg/m³),Mass concentration (μg/m³),Mass concentration (μg/m³)
DateTimeUTC,F1_M11,P_M11,Q1_M11,Q2_M11,T1_M11,T2_M11,T3_M11,T4_M11,T5_M11,U1_M11,ZSPAN_M11,X0_M11,X2_M11,X1_M11
2021-10-14 09:00:00,,0822.1,5.00,0.00,23.9,23.0,00.0,32.9,25.7,15.4,0000.0,0008.88,0003.24,0002.41
2021-10-14 09:01:00,,0822.1,5.00,0.00,23.9,23.0,00.0,32.9,25.7,15.5,0000.0,0008.60,0003.25,0002.43
2021-10-14 09:02:00,,0822.1,4.99,0.00,23.9,23.1,00.0,32.9,25.7,15.6,0000.0,0008.03,0003.26,0002.44
2021-10-14 09:03:00,,0822.1,5.00,0.00,23.9,23.1,00.0,33.0,25.7,15.6,0000.0,0007.89,0003.27,0002.43
2021-10-14 09:04:00,,0822.1,5.01,0.00,23.9,23.1,00.0,33.0,25.7,15.5,0000.0,0007.88,0003.30,0002.44
2021-10-14 09:05:00,,0822.1,5.00,0.00,23.9,23.0,00.0,33.0,25.7,15.5,0000.0,0008.26,0003.35,0002.45
2021-10-14 09:06:00,,0822.1,5.00,0.00,23.9,23.1,00.0,33.0,25.7,15.6,0000.0,0008.53,0003.38,0002.44
2021-10-14 09:07:00,,0822.1,5.01,0.00,23.9,23.0,00.0,33.0,25.7,15.6,0000.0,0008.59,0003.37,0002.44
2021-10-14 09:08:00,,0822.1,5.01,0.00,23.9,23.0,00.0,33.0,25.7,15.6,0000.0,0008.15,0003.38,0002.43
2021-10-14 09:09:00,,0822.0,4.99,0.00,23.9,23.0,00.0,33.0,25.7,15.6,0000.0,0007.70,0003.39,0002.43
2021-10-14 09:10:00,,0822.0,5.00,0.00,23.9,23.0,00.0,33.0,25.6,15.6,0000.0,0007.79,0003.40,0002.44
2021-10-14 09:11:00,,0821.9,5.01,0.00,23.9,23.0,00.0,33.0,25.7,15.6,0000.0,0008.39,0003.39,0002.44
2021-10-14 09:12:00,,0821.9,5.00,0.00,23.9,23.0,00.0,33.0,25.7,15.6,0000.0,0008.61,0003.43,0002.46
2021-10-14 09:13:00,,0822.1,5.00,0.00,23.9,23.0,00.0,33.0,25.7,15.5,0000.0,0008.54,0003.43,0002.47
2021-10-14 09:14:00,,0822.0,5.00,0.00,23.9,23.0,00.0,33.0,25.6,15.5,0000.0,0008.45,0003.41,0002.46
2021-10-14 09:15:00,,0822.1,5.01,0.00,23.9,23.0,00.0,33.0,25.6,15.5,0000.0,0008.88,0003.43,0002.46
2021-10-14 09:16:00,,0821.9,4.98,0.00,23.9,23.0,00.0,33.0,25.7,15.5,0000.0,0009.02,0003.41,0002.45
2021-10-14 09:17:00,,0821.9,4.99,0.00,23.9,23.0,00.0,33.0,25.7,15.5,0000.0,0008.88,0003.41,0002.46
2021-10-14 09:18:00,,0822.0,5.01,0.00,23.9,23.0,00.0,33.0,25.7,15.5,0000.0,0008.90,0003.41,0002.46
2021-10-14 09:19:00,,0822.0,5.00,0.00,23.9,23.0,00.0,33.0,25.7,15.5,0000.0,0009.39,0003.42,0002.48
2021-10-14 09:20:00,,0822.0,5.01,0.00,23.9,23.0,00.0,33.0,25.7,15.5,0000.0,0009.65,0003.42,0002.48
2021-10-14 09:21:00,,0822.1,5.00,0.00,23.9,23.0,00.0,33.0,25.7,15.5,0000.0,0009.77,0003.45,0002.49
2021-10-14 09:22:00,,0822.1,4.99,0.00,23.9,23.0,00.0,33.0,25.6,15.5,0000.0,0009.28,0003.44,0002.49
2021-10-14 09:23:00,,0822.1,5.01,0.00,23.9,23.0,00.0,33.0,25.7,15.5,0000.0,0009.32,0003.45,0002.48
2021-10-14 09:24:00,,0822.1,5.00,0.00,23.9,23.0,00.0,33.0,25.7,15.5,0000.0,0009.43,0003.49,0002.47
2021-10-14 09:25:00,,0822.1,5.00,0.00,23.9,23.0,00.0,33.0,25.7,15.5,0000.0,0009.69,0003.53,0002.47
2021-10-14 09:26:00,,0822.1,4.99,0.00,23.9,23.0,00.0,33.0,25.7,15.5,0000.0,0009.29,0003.50,0002.46
2021-10-14 09:27:00,,0822.0,5.01,0.00,23.9,23.0,00.0,33.0,25.7,15.5,0000.0,0010.13,0003.46,0002.45
2021-10-14 09:28:00,,0822.1,4.99,0.00,23.9,23.0,00.0,33.0,25.7,15.5,0000.0,0011.03,0003.51,0002.46
2021-10-14 09:29:00,,0822.0,4.99,0.00,23.9,23.0,00.0,33.0,25.7,15.6,0000.0,0011.23,0003.58,0002.47
2021-10-14 09:30:00,,0822.0,4.99,0.00,23.9,23.0,00.0,33.0,25.6,15.6,0000.0,0010.90,0003.60,0002.46
2021-10-14 09:31:00,,0822.1,5.00,0.00,23.9,23.0,00.0,33.0,25.6,15.6,0000.0,0011.05,0003.60,0002.45
2021-10-14 09:32:00,,0822.1,5.01,0.00,23.9,23.0,00.0,33.0,25.6,15.6,0000.0,0011.01,0003.58,0002.45
2021-10-14 09:33:00,,0822.0,4.99,0.00,23.9,23.0,00.0,33.0,25.6,15.6,0000.0,0011.26,0003.62,0002.43
2021-10-14 09:34:00,,0822.0,5.00,0.00,23.9,23.0,00.0,33.0,25.6,15.6,0000.0,0011.18,0003.60,0002.43
2021-10-14 09:35:00,,0822.0,5.01,0.00,23.9,23.0,00.0,33.0,25.6,15.6,0000.0,0011.45,0003.58,0002.43
2021-10-14 09:36:00,,0822.1,5.00,0.00,23.9,23.0,00.0,33.0,25.6,15.6,0000.0,0011.45,0003.61,0002.45
2021-10-14 09:37:00,,0822.1,5.01,0.00,23.9,23.0,00.0,33.0,25.6,15.7,0000.0,0011.39,0003.63,0002.46
2021-10-14 09:38:00,,0822.0,5.01,0.00,23.9,23.0,00.0,33.0,25.7,15.7,0000.0,0010.39,0003.65,0002.47
2021-10-14 09:39:00,,0821.9,5.00,0.00,23.9,23.0,00.0,33.0,25.7,15.7,0000.0,0009.50,0003.62,0002.45
2021-10-14 09:40:00,,0821.9,5.01,0.00,23.9,23.0,00.0,33.0,25.7,15.7,0000.0,0009.13,0003.58,0002.43
2021-10-14 09:41:00,,0821.9,4.99,0.00,23.9,23.0,00.0,33.0,25.7,15.6,0000.0,0008.85,0003.54,0002.42
2021-10-14 09:42:00,,0821.9,5.01,0.00,23.9,23.0,00.0,33.0,25.7,15.6,0000.0,0009.05,0003.54,0002.41
2021-10-14 09:43:00,,0821.9,4.99,0.00,23.9,23.0,00.0,33.0,25.7,15.6,0000.0,0009.01,0003.56,0002.40
2021-10-14 09:44:00,,0822.0,5.01,0.00,23.9,23.0,00.0,33.0,25.7,15.6,0000.0,0008.94,0003.57,0002.41
2021-10-14 09:45:00,,0821.9,5.00,0.00,23.9,23.0,00.0,33.0,25.7,15.6,0000.0,0008.75,0003.54,0002.40
2021-10-14 09:46:00,,0821.9,5.00,0.00,23.9,23.0,00.0,33.0,25.7,15.6,0000.0,0008.54,0003.57,0002.39
2021-10-14 09:47:00,,0821.9,4.98,0.00,23.9,23.0,00.0,33.0,25.7,15.5,0000.0,0008.25,0003.51,0002.36
2021-10-14 09:48:00,,0822.0,5.00,0.00,23.9,23.0,00.0,33.0,25.7,15.5,0000.0,0008.41,0003.51,0002.33
2021-10-14 09:49:00,,0822.1,5.00,0.00,23.9,23.0,00.0,33.0,25.7,15.5,0000.0,0008.47,0003.49,0002.32
2021-10-14 09:50:00,,0822.1,5.00,0.00,23.9,23.0,00.0,33.0,25.7,15.5,0000.0,0009.13,0003.47,0002.31
2021-10-14 09:51:00,,0821.9,5.01,0.00,23.9,23.0,00.0,33.0,25.7,15.5,0000.0,0009.81,0003.50,0002.30
2021-10-14 09:52:00,,0821.9,5.00,0.00,23.9,23.0,00.0,33.0,25.7,15.5,0000.0,0009.86,0003.50,0002.31
2021-10-14 09:53:00,,0821.9,5.00,0.00,23.9,23.0,00.0,33.0,25.7,15.5,0000.0,0009.54,0003.50,0002.31
2021-10-14 09:54:00,,0822.0,4.99,0.00,23.9,23.0,00.0,33.0,25.7,15.5,0000.0,0009.14,0003.46,0002.30
2021-10-14 09:55:00,,0822.0,5.00,0.00,23.9,23.0,00.0,33.0,25.7,15.4,0000.0,0008.91,0003.41,0002.29
2021-10-14 09:56:00,,0822.1,4.99,0.00,23.9,23.0,00.0,33.0,25.7,15.4,0000.0,0008.75,0003.38,0002.28
2021-10-14 09:57:00,,0822.1,5.01,0.00,23.9,23.0,00.0,33.0,25.7,15.5,0000.0,0008.70,0003.36,0002.27
2021-10-14 09:58:00,,0822.1,5.00,0.00,23.9,22.9,00.0,33.0,25.6,15.5,0000.0,0008.79,0003.37,0002.27
2021-10-14 09:59:00,,0822.1,4.99,0.00,23.9,22.9,00.0,33.0,25.6,15.5,0000.0,0008.89,0003.36,0002.28
